Hlavní strana
METAR-TAF:

METAR-TAF

Letiště :

Nipawin, Saskatchewan, Kanada

zeměpisná šířka: 53-20N, zeměpisná délka: 104-00W, výška: 372 m

Aktuální stav počasí

Zpráva byla vytvořena před 28 minutami, v 18:17 UTC
Jižní vítr 3 kt
Teplota -31°C
Vlhkost vzduchu 75%
Tlak 1031 hPa
Viditelnost: 9.7 km
Jasno
zákal

METAR: CYBU 181817Z AUTO 18003KT 6SM HZ CLR M31/M34 A3045 RMK SLP369

Čas: 12:45 (18:45 UTC)


TAF: chybějící

Stav a předpovědi počasí z více než 4 000 letišť (zprávy METAR a TAF).

Červené a žluté tečky na mapě představují dostupné meteorologické stanice.

Když kurzor umístíte na tečku, zobrazí se název stanice.

Pak kliknutím zobrazíte stav a předpověď počasí.

Chcete-li změnit mapu, kliknutím na zelené tlačítko se znaménkem +mapu přiblížíte, kliknutím na zelené tlačítko se znaménkem – mapu oddálíte a kliknutím na zelené šipky přejdete na sousední mapy.


METAR-TAF: